WZZ6845 EPWA-LDDU

Flight info

Callsign WZZ6845
Flight time 1h 34m
Altitude 36000
Route EVINA M66 BABKO DCT PATAK DCT OSDUK DCT NETKO
Aircraft A21N/M-SDE3FGHIRWY/LB1

Departure

Time 2026-05-05 08:20
Airport Warsaw Chopin Airport (EPWA)

Arrival

Time 2026-05-05 09:54
Airport Dubrovnik Ruđer Bošković Airport (LDDU)
Time Latitude Longitude Altitude Speed Heading
2026-05-05 07:47 52.17085 20.96777 337 ft 0 kts 277°
2026-05-05 08:14 52.17085 20.96776 337 ft 0 kts 277°
2026-05-05 08:14 52.17087 20.96755 337 ft 3 kts 277°
2026-05-05 08:15 52.17084 20.96709 337 ft 5 kts 246°
2026-05-05 08:15 52.17049 20.96692 336 ft 6 kts 158°
2026-05-05 08:15 52.17001 20.96735 336 ft 8 kts 149°
2026-05-05 08:15 52.16942 20.96789 336 ft 10 kts 152°
2026-05-05 08:16 52.16873 20.96850 336 ft 11 kts 151°
2026-05-05 08:16 52.16796 20.96919 336 ft 13 kts 152°
2026-05-05 08:16 52.16713 20.96991 337 ft 13 kts 152°
2026-05-05 08:16 52.16649 20.97101 337 ft 14 kts 114°
2026-05-05 08:17 52.16608 20.97249 337 ft 14 kts 114°
2026-05-05 08:17 52.16565 20.97404 337 ft 15 kts 115°
2026-05-05 08:17 52.16519 20.97567 337 ft 16 kts 114°
2026-05-05 08:17 52.16472 20.97736 337 ft 16 kts 114°
2026-05-05 08:18 52.16414 20.97804 337 ft 8 kts 188°
2026-05-05 08:18 52.16354 20.97763 337 ft 9 kts 206°
2026-05-05 08:18 52.16302 20.97696 337 ft 8 kts 264°
2026-05-05 08:18 52.16308 20.97662 337 ft 0 kts 294°
2026-05-05 08:19 52.16309 20.97660 337 ft 4 kts 294°
2026-05-05 08:19 52.16437 20.97202 337 ft 83 kts 295°
2026-05-05 08:20 52.16777 20.95991 343 ft 147 kts 294°
2026-05-05 08:20 52.17247 20.94330 696 ft 167 kts 295°
2026-05-05 08:20 52.17739 20.92612 1357 ft 169 kts 293°
2026-05-05 08:20 52.18208 20.90861 2039 ft 170 kts 288°
2026-05-05 08:21 52.18286 20.89014 2658 ft 166 kts 255°
2026-05-05 08:21 52.17967 20.87227 3226 ft 163 kts 253°
2026-05-05 08:21 52.17616 20.85424 3660 ft 170 kts 240°
2026-05-05 08:21 52.16683 20.84173 3961 ft 185 kts 203°
2026-05-05 08:22 52.15416 20.83497 4309 ft 201 kts 198°
2026-05-05 08:22 52.14021 20.82791 4653 ft 218 kts 199°
2026-05-05 08:22 52.12507 20.81963 4962 ft 240 kts 200°
2026-05-05 08:22 52.10865 20.81005 5413 ft 257 kts 201°
2026-05-05 08:23 52.09182 20.79988 6102 ft 264 kts 202°
2026-05-05 08:23 52.07453 20.78922 6956 ft 265 kts 202°
2026-05-05 08:23 52.05741 20.77853 7795 ft 267 kts 202°
2026-05-05 08:23 52.03990 20.76751 8626 ft 269 kts 202°
2026-05-05 08:24 52.02197 20.75620 9451 ft 272 kts 203°
2026-05-05 08:24 52.00392 20.74481 10249 ft 274 kts 203°
2026-05-05 08:24 51.98548 20.73317 10720 ft 289 kts 203°
2026-05-05 08:24 51.96619 20.72096 11113 ft 304 kts 203°
2026-05-05 08:25 51.94647 20.70851 11735 ft 311 kts 203°
2026-05-05 08:25 51.92618 20.69572 12465 ft 313 kts 204°
2026-05-05 08:25 51.90579 20.68288 13164 ft 316 kts 204°
2026-05-05 08:25 51.88522 20.66992 13845 ft 320 kts 204°
2026-05-05 08:26 51.86460 20.65692 14499 ft 323 kts 204°
2026-05-05 08:26 51.84361 20.64369 15151 ft 326 kts 204°
2026-05-05 08:26 51.82227 20.63026 15788 ft 330 kts 204°
2026-05-05 08:26 51.80088 20.61682 16407 ft 333 kts 204°
2026-05-05 08:27 51.77919 20.60320 17013 ft 336 kts 204°
2026-05-05 08:27 51.75745 20.58959 17606 ft 339 kts 204°
2026-05-05 08:27 51.73553 20.57586 18170 ft 343 kts 203°
2026-05-05 08:27 51.71314 20.56185 18741 ft 346 kts 203°
2026-05-05 08:28 51.69078 20.54789 19293 ft 349 kts 203°
2026-05-05 08:28 51.66800 20.53368 19841 ft 352 kts 203°
2026-05-05 08:28 51.64534 20.51956 20376 ft 355 kts 203°
2026-05-05 08:28 51.62234 20.50524 20890 ft 358 kts 203°
2026-05-05 08:29 51.59919 20.49084 21385 ft 361 kts 203°
2026-05-05 08:29 51.57544 20.47608 21872 ft 364 kts 203°
2026-05-05 08:29 51.55191 20.46147 22338 ft 367 kts 203°
2026-05-05 08:30 51.50383 20.43170 23256 ft 373 kts 203°
2026-05-05 08:30 51.47971 20.41679 23709 ft 376 kts 203°
2026-05-05 08:30 51.45503 20.40153 24150 ft 379 kts 203°
2026-05-05 08:30 51.43019 20.38621 24579 ft 382 kts 203°
2026-05-05 08:31 51.40543 20.37095 25027 ft 385 kts 203°
2026-05-05 08:31 51.37999 20.35607 25446 ft 388 kts 200°
2026-05-05 08:31 51.35397 20.34253 25852 ft 391 kts 199°
2026-05-05 08:31 51.32811 20.32906 26249 ft 393 kts 199°
2026-05-05 08:32 51.30202 20.31548 26635 ft 396 kts 199°
2026-05-05 08:32 51.27580 20.30185 27019 ft 398 kts 199°
2026-05-05 08:32 51.24930 20.28810 27404 ft 401 kts 199°
2026-05-05 08:32 51.22299 20.27446 27766 ft 403 kts 199°
2026-05-05 08:33 51.19625 20.26061 28129 ft 406 kts 199°
2026-05-05 08:33 51.16955 20.24681 28493 ft 408 kts 199°
2026-05-05 08:33 51.14265 20.23293 28860 ft 410 kts 199°
2026-05-05 08:33 51.11539 20.21887 29213 ft 412 kts 199°
2026-05-05 08:34 51.08787 20.20469 29553 ft 415 kts 199°
2026-05-05 08:34 51.06074 20.19074 29886 ft 417 kts 199°
2026-05-05 08:34 51.03308 20.17652 30214 ft 419 kts 200°
2026-05-05 08:34 51.00525 20.16224 30536 ft 422 kts 200°
2026-05-05 08:35 50.97751 20.14802 30845 ft 424 kts 200°
2026-05-05 08:35 50.94937 20.13362 31149 ft 426 kts 200°
2026-05-05 08:35 50.92117 20.11920 31451 ft 428 kts 200°
2026-05-05 08:35 50.89267 20.10465 31767 ft 430 kts 200°
2026-05-05 08:36 50.86417 20.09014 32076 ft 432 kts 200°
2026-05-05 08:36 50.83559 20.07560 32426 ft 432 kts 200°
2026-05-05 08:36 50.80699 20.06109 32868 ft 430 kts 200°
2026-05-05 08:36 50.77897 20.04689 33303 ft 428 kts 200°
2026-05-05 08:37 50.75051 20.03247 33724 ft 427 kts 200°
2026-05-05 08:37 50.72241 20.01826 34115 ft 426 kts 200°
2026-05-05 08:37 50.69407 20.00393 34464 ft 426 kts 200°
2026-05-05 08:37 50.66577 19.98963 34758 ft 427 kts 200°
2026-05-05 08:38 50.63768 19.97545 35011 ft 428 kts 200°
2026-05-05 08:38 50.60956 19.96127 35251 ft 428 kts 200°
2026-05-05 08:38 50.58113 19.94695 35477 ft 429 kts 200°
2026-05-05 08:38 50.55261 19.93261 35674 ft 430 kts 200°
2026-05-05 08:39 50.52412 19.91831 35850 ft 432 kts 200°
2026-05-05 08:39 50.46646 19.88942 35886 ft 434 kts 200°
2026-05-05 08:40 50.40929 19.86085 35897 ft 434 kts 200°
2026-05-05 08:40 50.35194 19.83227 35903 ft 434 kts 200°
2026-05-05 08:41 50.29422 19.80356 35900 ft 433 kts 200°
2026-05-05 08:41 50.23668 19.77501 35898 ft 433 kts 200°
2026-05-05 08:42 50.17949 19.74671 35900 ft 433 kts 200°
2026-05-05 08:42 50.12212 19.71840 35896 ft 433 kts 200°
2026-05-05 08:43 50.06457 19.69007 35898 ft 434 kts 200°
2026-05-05 08:43 50.00702 19.66181 35897 ft 435 kts 200°
2026-05-05 08:44 49.94964 19.63372 35898 ft 434 kts 200°
2026-05-05 08:44 49.89196 19.60552 35907 ft 434 kts 200°
2026-05-05 08:45 49.83443 19.57745 35911 ft 433 kts 200°
2026-05-05 08:45 49.77708 19.54958 35913 ft 433 kts 200°
2026-05-05 08:46 49.71948 19.52163 35917 ft 434 kts 200°
2026-05-05 08:46 49.66167 19.49366 35922 ft 435 kts 200°
2026-05-05 08:47 49.60332 19.46929 35926 ft 436 kts 194°
2026-05-05 08:47 49.54315 19.45394 35935 ft 437 kts 191°
2026-05-05 08:48 49.48341 19.44029 35942 ft 436 kts 191°
2026-05-05 08:48 49.42353 19.42660 35942 ft 436 kts 191°
2026-05-05 08:49 49.36354 19.41294 35951 ft 437 kts 191°
2026-05-05 08:49 49.30355 19.39932 35951 ft 437 kts 191°
2026-05-05 08:50 49.24376 19.38578 35953 ft 437 kts 191°
2026-05-05 08:50 49.18370 19.37222 35962 ft 438 kts 191°
2026-05-05 08:51 49.12338 19.35863 35958 ft 437 kts 191°
2026-05-05 08:51 49.06349 19.34518 35965 ft 437 kts 190°
2026-05-05 08:52 49.00329 19.33171 35969 ft 437 kts 190°
2026-05-05 08:52 48.94321 19.31828 35980 ft 437 kts 190°
2026-05-05 08:53 48.88334 19.30493 35978 ft 437 kts 190°
2026-05-05 08:53 48.82285 19.29145 35972 ft 438 kts 190°
2026-05-05 08:54 48.76300 19.27816 35966 ft 438 kts 189°
2026-05-05 08:54 48.70266 19.26481 35965 ft 438 kts 189°
2026-05-05 08:55 48.64261 19.25155 35965 ft 438 kts 189°
2026-05-05 08:55 48.58238 19.23828 35968 ft 438 kts 189°
2026-05-05 08:56 48.52210 19.22503 35972 ft 438 kts 189°
2026-05-05 08:56 48.46143 19.21173 35971 ft 439 kts 189°
2026-05-05 08:57 48.40110 19.19853 35970 ft 439 kts 189°
2026-05-05 08:57 48.34019 19.18525 35973 ft 439 kts 190°
2026-05-05 08:58 48.27985 19.17207 35969 ft 439 kts 189°
2026-05-05 08:58 48.21949 19.15896 35966 ft 439 kts 189°
2026-05-05 08:59 48.15865 19.14577 35965 ft 439 kts 189°
2026-05-05 08:59 48.09829 19.13236 35961 ft 439 kts 191°
2026-05-05 09:00 48.03875 19.11180 35960 ft 439 kts 198°
2026-05-05 09:00 47.98026 19.08527 35967 ft 439 kts 198°
2026-05-05 09:01 47.92173 19.05882 35967 ft 439 kts 198°
2026-05-05 09:01 47.86215 19.03194 35967 ft 438 kts 198°
2026-05-05 09:02 47.80352 19.00553 35965 ft 438 kts 198°
2026-05-05 09:02 47.74517 18.97933 35969 ft 438 kts 198°
2026-05-05 09:03 47.68638 18.95298 35977 ft 439 kts 198°
2026-05-05 09:03 47.62785 18.92683 35979 ft 438 kts 198°
2026-05-05 09:04 47.56974 18.90089 35984 ft 439 kts 198°
2026-05-05 09:04 47.51096 18.87473 35984 ft 439 kts 198°
2026-05-05 09:05 47.45265 18.84885 35980 ft 439 kts 198°
2026-05-05 09:05 47.39391 18.82282 35977 ft 439 kts 198°
2026-05-05 09:06 47.33569 18.79709 35968 ft 439 kts 198°
2026-05-05 09:06 47.27708 18.77124 35973 ft 439 kts 198°
2026-05-05 09:07 47.21858 18.74550 35962 ft 439 kts 198°
2026-05-05 09:07 47.16002 18.71981 35956 ft 439 kts 198°
2026-05-05 09:08 47.10128 18.69409 35953 ft 440 kts 198°
2026-05-05 09:08 47.04248 18.66839 35955 ft 441 kts 198°
2026-05-05 09:09 46.98376 18.64278 35952 ft 442 kts 198°
2026-05-05 09:09 46.92469 18.61710 35959 ft 442 kts 198°
2026-05-05 09:10 46.86564 18.59150 35956 ft 441 kts 198°
2026-05-05 09:10 46.80664 18.56596 35959 ft 440 kts 198°
2026-05-05 09:11 46.74805 18.54066 35959 ft 440 kts 198°
2026-05-05 09:11 46.68962 18.51548 35957 ft 440 kts 199°
2026-05-05 09:12 46.63065 18.49013 35960 ft 441 kts 199°
2026-05-05 09:12 46.57177 18.46486 35965 ft 442 kts 199°
2026-05-05 09:13 46.51293 18.43967 35969 ft 442 kts 199°
2026-05-05 09:13 46.45369 18.41437 35966 ft 441 kts 199°
2026-05-05 09:14 46.39473 18.38926 35965 ft 441 kts 199°
2026-05-05 09:14 46.33555 18.36411 35964 ft 441 kts 199°
2026-05-05 09:15 46.27635 18.33900 35960 ft 442 kts 198°
2026-05-05 09:15 46.21695 18.31385 35960 ft 442 kts 198°
2026-05-05 09:16 46.15796 18.28894 35959 ft 442 kts 198°
2026-05-05 09:16 46.09900 18.26409 35969 ft 442 kts 198°
2026-05-05 09:17 46.03964 18.23914 35979 ft 442 kts 198°
2026-05-05 09:17 45.98066 18.21439 35979 ft 442 kts 198°
2026-05-05 09:18 45.92172 18.18971 35982 ft 442 kts 198°
2026-05-05 09:18 45.86215 18.16482 35972 ft 441 kts 198°
2026-05-05 09:19 45.80307 18.14115 35968 ft 443 kts 195°
2026-05-05 09:19 45.74209 18.12545 35965 ft 446 kts 189°
2026-05-05 09:20 45.68033 18.11444 35963 ft 446 kts 189°
2026-05-05 09:20 45.61892 18.10347 35967 ft 446 kts 189°
2026-05-05 09:21 45.55736 18.09246 35968 ft 445 kts 189°
2026-05-05 09:21 45.49606 18.08153 35968 ft 445 kts 190°
2026-05-05 09:22 45.43434 18.07052 35969 ft 445 kts 190°
2026-05-05 09:22 45.37310 18.05963 35968 ft 445 kts 190°
2026-05-05 09:23 45.31185 18.04876 35972 ft 445 kts 190°
2026-05-05 09:23 45.24997 18.03780 35970 ft 446 kts 190°
2026-05-05 09:24 45.18841 18.02694 35973 ft 446 kts 190°
2026-05-05 09:24 45.12650 18.01601 35970 ft 446 kts 190°
2026-05-05 09:25 45.06446 18.00510 35973 ft 446 kts 190°
2026-05-05 09:25 45.00299 17.99431 35967 ft 445 kts 190°
2026-05-05 09:26 44.94127 17.98352 35970 ft 446 kts 190°
2026-05-05 09:26 44.87972 17.97276 35967 ft 446 kts 190°
2026-05-05 09:27 44.81811 17.96203 35967 ft 445 kts 190°
2026-05-05 09:27 44.75661 17.95134 35974 ft 445 kts 190°
2026-05-05 09:28 44.69530 17.94069 35978 ft 445 kts 190°
2026-05-05 09:28 44.63406 17.93006 35978 ft 445 kts 191°
2026-05-05 09:29 44.57254 17.91944 35992 ft 445 kts 191°
2026-05-05 09:29 44.51134 17.90887 36000 ft 445 kts 191°
2026-05-05 09:30 44.44881 17.89812 35992 ft 446 kts 191°
2026-05-05 09:30 44.41801 17.89283 35752 ft 445 kts 191°
2026-05-05 09:30 44.38768 17.88762 35503 ft 443 kts 191°
2026-05-05 09:30 44.35729 17.88241 35088 ft 441 kts 191°
2026-05-05 09:31 44.32697 17.87724 34480 ft 441 kts 191°
2026-05-05 09:31 44.29661 17.87202 33769 ft 441 kts 191°
2026-05-05 09:31 44.26568 17.86672 33033 ft 442 kts 191°
2026-05-05 09:31 44.23523 17.86152 32271 ft 444 kts 191°
2026-05-05 09:32 44.20486 17.85632 31648 ft 442 kts 191°
2026-05-05 09:32 44.17432 17.85113 31167 ft 438 kts 191°
2026-05-05 09:32 44.14453 17.84607 30697 ft 434 kts 191°
2026-05-05 09:32 44.11465 17.84099 30210 ft 430 kts 191°
2026-05-05 09:33 44.08490 17.83592 29724 ft 427 kts 191°
2026-05-05 09:33 44.05587 17.83101 29253 ft 423 kts 191°
2026-05-05 09:33 44.02682 17.82606 28781 ft 420 kts 191°
2026-05-05 09:33 43.99775 17.82113 28304 ft 416 kts 191°
2026-05-05 09:34 43.96913 17.81630 27841 ft 413 kts 191°
2026-05-05 09:34 43.94081 17.81150 27377 ft 409 kts 191°
2026-05-05 09:34 43.91289 17.80677 26913 ft 406 kts 190°
2026-05-05 09:34 43.88477 17.80203 26439 ft 403 kts 191°
2026-05-05 09:35 43.85688 17.79732 25955 ft 401 kts 190°
2026-05-05 09:35 43.80201 17.78809 25014 ft 395 kts 190°
2026-05-05 09:35 43.77472 17.78349 24541 ft 393 kts 190°
2026-05-05 09:36 43.74795 17.77898 24080 ft 390 kts 190°
2026-05-05 09:36 43.72104 17.77448 23604 ft 388 kts 190°
2026-05-05 09:36 43.69420 17.76998 23140 ft 385 kts 190°
2026-05-05 09:36 43.66786 17.76556 22696 ft 383 kts 190°
2026-05-05 09:37 43.64138 17.76112 22244 ft 381 kts 190°
2026-05-05 09:37 43.61547 17.75678 21794 ft 378 kts 189°
2026-05-05 09:37 43.58910 17.75236 21351 ft 375 kts 189°
2026-05-05 09:37 43.56332 17.74804 20913 ft 373 kts 189°
2026-05-05 09:38 43.53791 17.74379 20481 ft 370 kts 189°
2026-05-05 09:38 43.51241 17.73955 20032 ft 367 kts 189°
2026-05-05 09:38 43.48679 17.73529 19587 ft 365 kts 189°
2026-05-05 09:38 43.46183 17.73112 19147 ft 362 kts 188°
2026-05-05 09:39 43.43684 17.72697 18694 ft 360 kts 188°
2026-05-05 09:39 43.41219 17.72289 18253 ft 357 kts 188°
2026-05-05 09:39 43.38732 17.71876 17811 ft 354 kts 188°
2026-05-05 09:39 43.36313 17.71474 17364 ft 352 kts 188°
2026-05-05 09:40 43.33890 17.71074 16913 ft 349 kts 188°
2026-05-05 09:40 43.31469 17.70673 16465 ft 347 kts 188°
2026-05-05 09:40 43.29092 17.70279 16017 ft 344 kts 188°
2026-05-05 09:40 43.26700 17.69884 15565 ft 342 kts 188°
2026-05-05 09:41 43.24368 17.69499 15132 ft 339 kts 187°
2026-05-05 09:41 43.22033 17.69113 14698 ft 336 kts 187°
2026-05-05 09:41 43.19693 17.68727 14261 ft 333 kts 187°
2026-05-05 09:41 43.17415 17.68352 13842 ft 330 kts 187°
2026-05-05 09:42 43.15136 17.67976 13420 ft 327 kts 187°
2026-05-05 09:42 43.12872 17.67603 12998 ft 325 kts 187°
2026-05-05 09:42 43.10654 17.67239 12573 ft 322 kts 187°
2026-05-05 09:42 43.08428 17.66873 12144 ft 320 kts 187°
2026-05-05 09:43 43.06250 17.66524 11710 ft 318 kts 186°
2026-05-05 09:43 43.04016 17.66657 11259 ft 317 kts 171°
2026-05-05 09:43 43.01898 17.67562 10817 ft 317 kts 158°
2026-05-05 09:43 42.99897 17.68804 10467 ft 313 kts 156°
2026-05-05 09:44 42.97967 17.70045 10271 ft 302 kts 156°
2026-05-05 09:44 42.96086 17.71255 10139 ft 290 kts 156°
2026-05-05 09:44 42.94306 17.72396 9839 ft 284 kts 156°
2026-05-05 09:44 42.92526 17.73528 9448 ft 282 kts 156°
2026-05-05 09:45 42.90739 17.74660 9090 ft 279 kts 156°
2026-05-05 09:45 42.88963 17.75784 8736 ft 277 kts 156°
2026-05-05 09:45 42.87221 17.76884 8386 ft 275 kts 156°
2026-05-05 09:45 42.85474 17.77987 8066 ft 271 kts 156°
2026-05-05 09:46 42.83792 17.79047 7735 ft 267 kts 156°
2026-05-05 09:46 42.82099 17.80112 7407 ft 264 kts 156°
2026-05-05 09:46 42.80445 17.81154 7094 ft 261 kts 156°
2026-05-05 09:46 42.78818 17.82177 6817 ft 256 kts 156°
2026-05-05 09:47 42.77202 17.83194 6538 ft 251 kts 156°
2026-05-05 09:47 42.75632 17.84180 6256 ft 246 kts 156°
2026-05-05 09:47 42.74123 17.85128 5988 ft 236 kts 156°
2026-05-05 09:47 42.72676 17.86161 5716 ft 233 kts 144°
2026-05-05 09:48 42.71581 17.87736 5493 ft 229 kts 127°
2026-05-05 09:48 42.70785 17.89602 5321 ft 223 kts 118°
2026-05-05 09:48 42.70123 17.91480 5130 ft 216 kts 117°
2026-05-05 09:48 42.69480 17.93280 4955 ft 212 kts 118°
2026-05-05 09:49 42.68811 17.95072 4793 ft 211 kts 119°
2026-05-05 09:49 42.68131 17.96825 4625 ft 210 kts 120°
2026-05-05 09:49 42.67439 17.98569 4457 ft 209 kts 120°
2026-05-05 09:49 42.66744 18.00297 4282 ft 208 kts 120°
2026-05-05 09:50 42.66048 18.02020 4109 ft 208 kts 120°
2026-05-05 09:50 42.65346 18.03757 3866 ft 208 kts 120°
2026-05-05 09:50 42.64660 18.05458 3589 ft 207 kts 120°
2026-05-05 09:50 42.63977 18.07157 3389 ft 200 kts 120°
2026-05-05 09:51 42.63327 18.08779 3138 ft 193 kts 120°
2026-05-05 09:51 42.62690 18.10369 2856 ft 189 kts 120°
2026-05-05 09:51 42.62077 18.11905 2591 ft 183 kts 120°
2026-05-05 09:51 42.61478 18.13405 2338 ft 177 kts 120°
2026-05-05 09:52 42.60905 18.14844 2103 ft 171 kts 120°
2026-05-05 09:52 42.60354 18.16228 1912 ft 155 kts 121°
2026-05-05 09:52 42.59872 18.17441 1694 ft 139 kts 121°
2026-05-05 09:52 42.59431 18.18548 1512 ft 131 kts 122°
2026-05-05 09:53 42.59000 18.19629 1358 ft 131 kts 121°
2026-05-05 09:53 42.58566 18.20711 1190 ft 130 kts 122°
2026-05-05 09:53 42.58129 18.21798 1012 ft 130 kts 122°
2026-05-05 09:53 42.57704 18.22879 837 ft 129 kts 121°
2026-05-05 09:54 42.57285 18.23947 690 ft 129 kts 123°
2026-05-05 09:54 42.56853 18.25017 538 ft 127 kts 122°
2026-05-05 09:54 42.56469 18.25977 524 ft 96 kts 118°
2026-05-05 09:54 42.56247 18.26543 521 ft 34 kts 116°
2026-05-05 09:55 42.56173 18.26634 520 ft 7 kts 191°
2026-05-05 09:55 42.56137 18.26582 520 ft 3 kts 244°
2026-05-05 09:55 42.56137 18.26580 520 ft 0 kts 243°
2026-05-05 09:55 42.56135 18.26576 520 ft 1 kts 243°
2026-05-05 09:56 42.56126 18.26551 520 ft 3 kts 244°
2026-05-05 09:56 42.56115 18.26519 520 ft 4 kts 244°
2026-05-05 09:56 42.56103 18.26473 521 ft 6 kts 263°
2026-05-05 09:56 42.56118 18.26397 521 ft 9 kts 298°
2026-05-05 09:57 42.56148 18.26323 522 ft 7 kts 297°
2026-05-05 09:57 42.56147 18.26286 522 ft 4 kts 225°
2026-05-05 09:57 42.56121 18.26264 522 ft 2 kts 207°
2026-05-05 09:57 42.56112 18.26257 522 ft 1 kts 208°
2026-05-05 09:58 42.56109 18.26255 522 ft 0 kts 207°